"Pseudo-MPEC" for P21Fi3D

Created 2023 Jun 5 16:22:07 UT using Find_Orb

Click here for an explanation of pseudo-MPECs

 
 Astrometry: 
     P21Fi3D* C2023 05 13kml(ndJ:\1O8#PXpTSH\(i;KA%#uOHBu%$CC(8%9AstrometryArF52
     P21Fi3D  C2023 05 13qqPg%]jb@3WkUNK2#4yredacted;P9Ws\_1SR4J#k]U[yuI0AX^lF52
     P21Fi3D  C2023 05 13j;F$nvrKJT1[Jdh8hEVY(fo[;rl\P*(@F)x:%pfO%Qe);-B],Rp5F52
     P21Fi3D 3C2023 05 14?JZ7clickpgGSaG\:a;d'hereki20M'qod#G[l@=8YJYZ#A'95CUT14
     P21Fi3D 3C2023 05 14yJC70p[e)for^2d+,,V[16ph1w(F@]EE]h\G8(#]@jG%vf']v=nfT14
     P21Fi3D 3C2023 05 1436Q0w+Uw*l?@mXtu5Xp%YuVy#9P@a-wexplanationnqpEKv`rpeT14

Station data:
(F52) Pan-STARRS 2, Haleakala  (N20.707382 W156.255910)  US/Hawaii.
   Observers J. Bulger, T. Dukes, T. Lowe, A. Schultz, M. Willman. Measurers
   K. Chambers, S. Chastel, T. de Boer, L. Denneau, J. Fairlamb, H.
   Flewelling, M. Huber, C.-C. Lin, E. Magnier, Y. Ramanjooloo, R. Wainscoat,
   R. Weryk. 1.8-m Ritchey-Chrétien + CCD.
(T14) Mauna Kea-UH/Tholen NEO Follow-Up (CFHT)  (N19.825252 W155.468876)
   US/Hawaii.  Observer R. Weryk. 3.6-m Canada-France-Hawaii Telescope.

Orbital elements:  P21Fi3D
   Perihelion 2040 May 10.98025 +/- 3131 TT = 23:31:33 (JD 2466285.48025)
Epoch 2023 May 14.0 TT = JDT 2460078.5                           AutoNEOCP
M 210.14814276 +/- 90               (J2000 ecliptic)
n   0.02414247 +/- 0.0157           Peri.  222.57556 +/- 90
a  11.8562733 +/- 5.12              Node   170.06173 +/- 43
e   0.0924334 +/- 0.218             Incl.   33.03153 +/- 41
P  40.82                   H 10.94  G  0.15   U 10.0  SR
q 10.7603570 +/- 4.72    Q 12.9521897 +/- 354
From 6 observations 2023 May 13-14 (24.3 hr); mean residual 0".07
Residuals in arcseconds: 
230513 F52  .11-  .05-    230513 F52  .06+  .10-    230514 T14  .02-  .02+    
230513 F52  .05+  .15+    230514 T14  .01+  .02+    230514 T14  .01+  .04-    

Ephemerides (geocentric):
Date (UTC) HH   RA             Dec           delta  r     elong  mag " sig PA
---- --------  ------------   ------------  ------ ------ -----  --- --------
2023 06 05 16  15 53 58.849   +13 16 37.99  12.013 12.822 141.4 22.2  758  93
2023 06 05 17  15 53 58.284   +13 16 38.51  12.013 12.822 141.4 22.2  760  93
2023 06 05 18  15 53 57.719   +13 16 39.02  12.014 12.822 141.4 22.2  763  93
2023 06 05 19  15 53 57.154   +13 16 39.53  12.014 12.822 141.4 22.2  766  93
2023 06 05 20  15 53 56.589   +13 16 40.03  12.014 12.822 141.4 22.2  769  93
2023 06 05 21  15 53 56.024   +13 16 40.53  12.014 12.822 141.3 22.2  771  93
2023 06 05 22  15 53 55.460   +13 16 41.02  12.014 12.822 141.3 22.2  774  93
2023 06 05 23  15 53 54.895   +13 16 41.51  12.015 12.822 141.3 22.2  777  93
2023 06 06 00  15 53 54.331   +13 16 41.99  12.015 12.822 141.3 22.2  780  93
2023 06 06 01  15 53 53.767   +13 16 42.46  12.015 12.822 141.3 22.2  782  92
2023 06 06 02  15 53 53.203   +13 16 42.94  12.015 12.822 141.2 22.2  785  92
2023 06 06 03  15 53 52.640   +13 16 43.40  12.016 12.822 141.2 22.2  788  92
2023 06 06 04  15 53 52.076   +13 16 43.87  12.016 12.822 141.2 22.2  791  92
2023 06 06 05  15 53 51.513   +13 16 44.32  12.016 12.822 141.2 22.2  794  92
2023 06 06 06  15 53 50.950   +13 16 44.78  12.016 12.822 141.1 22.2  796  92
2023 06 06 07  15 53 50.386   +13 16 45.22  12.016 12.822 141.1 22.2  799  92
2023 06 06 08  15 53 49.824   +13 16 45.67  12.017 12.822 141.1 22.2  802  92
2023 06 06 09  15 53 49.261   +13 16 46.10  12.017 12.822 141.1 22.2  805  92
2023 06 06 10  15 53 48.698   +13 16 46.54  12.017 12.822 141.1 22.2  808  92
2023 06 06 11  15 53 48.136   +13 16 46.96  12.017 12.822 141.0 22.2  811  92
2023 06 06 12  15 53 47.574   +13 16 47.38  12.017 12.822 141.0 22.2  813  92
2023 06 06 13  15 53 47.011   +13 16 47.80  12.018 12.822 141.0 22.2  816  92
2023 06 06 14  15 53 46.450   +13 16 48.21  12.018 12.822 141.0 22.2  819  92
2023 06 06 15  15 53 45.888   +13 16 48.62  12.018 12.822 141.0 22.2  822  92
2023 06 06 16  15 53 45.326   +13 16 49.02  12.018 12.822 140.9 22.2  825  92
2023 06 06 17  15 53 44.765   +13 16 49.42  12.018 12.822 140.9 22.2  828  92
2023 06 06 18  15 53 44.203   +13 16 49.81  12.019 12.822 140.9 22.2  830  92
2023 06 06 19  15 53 43.642   +13 16 50.20  12.019 12.822 140.9 22.2  833  92
2023 06 06 20  15 53 43.081   +13 16 50.58  12.019 12.822 140.8 22.2  836  92
2023 06 06 21  15 53 42.521   +13 16 50.96  12.019 12.822 140.8 22.2  839  92
2023 06 06 22  15 53 41.960   +13 16 51.33  12.020 12.822 140.8 22.2  842  92
2023 06 06 23  15 53 41.400   +13 16 51.70  12.020 12.822 140.8 22.2  845  92
2023 06 07 00  15 53 40.839   +13 16 52.06  12.020 12.822 140.8 22.2  848  92
2023 06 07 01  15 53 40.279   +13 16 52.42  12.020 12.822 140.7 22.2  851  92
2023 06 07 02  15 53 39.719   +13 16 52.77  12.020 12.822 140.7 22.2  853  92
2023 06 07 03  15 53 39.159   +13 16 53.12  12.021 12.822 140.7 22.2  856  92
2023 06 07 04  15 53 38.600   +13 16 53.46  12.021 12.822 140.7 22.2  859  92
2023 06 07 05  15 53 38.040   +13 16 53.79  12.021 12.822 140.6 22.2  862  92
2023 06 07 06  15 53 37.481   +13 16 54.13  12.021 12.822 140.6 22.2  865  92
2023 06 07 07  15 53 36.922   +13 16 54.45  12.021 12.822 140.6 22.2  868  92
2023 06 07 08  15 53 36.363   +13 16 54.78  12.022 12.822 140.6 22.2  871  92
2023 06 07 09  15 53 35.804   +13 16 55.09  12.022 12.822 140.6 22.2  874  92
2023 06 07 10  15 53 35.245   +13 16 55.40  12.022 12.822 140.5 22.2  877  92
2023 06 07 11  15 53 34.687   +13 16 55.71  12.022 12.822 140.5 22.2  880  92
2023 06 07 12  15 53 34.129   +13 16 56.01  12.023 12.822 140.5 22.2  883  92
2023 06 07 13  15 53 33.571   +13 16 56.31  12.023 12.822 140.5 22.2  886  92
2023 06 07 14  15 53 33.013   +13 16 56.60  12.023 12.822 140.5 22.2  889  91
2023 06 07 15  15 53 32.455   +13 16 56.89  12.023 12.822 140.4 22.2  892  91